User: anonymous   Login
Location: Home
(42.5358°N, 72.7383°W)
Time: 19:21:48
(UTC-04:00)
Language:

FENGYUN 1C DEB - Orbit

View from above orbital plane
View from above orbital plane
View from above satellite
View from above satellite

Ground track
Ground track

The orbit data is extracted from the following two-line orbital elements,

1 31331U 99025BQK 24107.36536572  .00000228  00000-0  18106-3 0  9998
2 31331  98.9327 142.8272 0054475  59.6945 300.9593 14.00203340553830
Epoch (UTC): 16 April 2024 08:46:07
Eccentricity: 0.0054475
inclination: 98.9327°
perigee height: 853 km
apogee height: 933 km
right ascension of ascending node: 142.8272°
argument of perigee: 59.6945°
revolutions per day: 14.00203340
mean anomaly at epoch: 300.9593°
orbit number at epoch: 55383

The dashed part of the orbit path shows where the satellite is in the earth's shadow,  

DLR